Location: Mexico
(19.4000°N, 99.1500°W)
Time: 00:07:59
(UTC-06:00)

ISS - Pass Details

Date: 21 May 2019
Orbit: 407 x 410 km, 51.6° (Epoch: 23 May)

Event Time Altitude Azimuth Distance (km) Brightness Sun altitude
Exits shadow 05:05:16 13° 288° (WNW) 1,285 -1.7 -12.5°
Maximum altitude 05:07:33 26° 234° (SW) 831 -2.8 -12.0°
Drops below altitude 10° 05:10:22 10° 175° (S) 1,461 -1.2 -11.4°
Sets 05:12:38 0° 162° (SSE) 2,319 -0.1 -11.0°
